Regional Weather Roundup
Issued by NWS

Home | Current Version | Previous Version | Graphics & Text | Print | Product List | Glossary On
Versions: 1 2 3 4 5 6 7 8 9 10 11 12 13 14 15 16 17 18 19 20 21 22 23 24 25 26 27
000
ASUS45 KTFX 212110
RWRMT
MONTANA REGIONAL WEATHER ROUNDUP
NATIONAL WEATHER SERVICE GREAT FALLS MT
200 PM MST TUE NOV 21 2017

NOTE: "FAIR" INDICATES FEW OR NO CLOUDS BELOW 12000 FEET WITH NO
SIGNIFICANT WEATHER AND/OR OBSTRUCTIONS TO VISIBILITY.

MTZ001>007-043-212200-
WEST OF THE DIVIDE

CITY           SKY/WX    TMP DP  RH WIND       PRES   REMARKS
KALISPELL      CLOUDY    42  37  82 SW3       30.18S
MISSOULA       LGT RAIN  36  35  96 NW5       30.21F
BUTTE          FAIR      35  27  72 CALM      30.19F
MULLAN PASS    FRZ RAIN  32  30  92 VRB5      30.12F VSB<1/4
ANACONDA         N/A     39  30  70 N6        30.17F
DEER LODGE       N/A     36  27  69 CALM      30.21F
EUREKA           N/A     46  34  61 MISG      30.17S
HAMILTON         N/A     37  32  81 N5          N/A
LIBBY            N/A     36  36 100 CALM      30.19F
PLAINS           N/A     36  33  88 N2        30.19F
$$

MTZ008-052>055-212200-
SOUTHWEST MONTANA

CITY           SKY/WX    TMP DP  RH WIND       PRES   REMARKS
BOZEMAN        FAIR      38  30  73 SW3       30.21F
DILLON         FAIR      43  30  60 S8        30.21F
W YELLOWSTONE  CLOUDY    34  34 100 W5G12     30.32R
ENNIS          CLOUDY    45  30  57 S14G21    30.27S
TWIN BRIDGES     N/A     43  30  60 CALM      30.18F
$$

MTZ009-010-012-014-046-048-049-054-212200-
EAST SLOPES AND CENTRAL MONTANA

CITY           SKY/WX    TMP DP  RH WIND       PRES   REMARKS
CUT BANK       FAIR      24  21  88 SE7       30.06F WCI  16
GREAT FALLS    FAIR      42  26  53 SW16      30.07F
HELENA         FAIR      37  32  82 NW3       30.18F
CHOTEAU          N/A     45  25  45 S6        30.08F
RAYNESFORD     FAIR      48  19  31 W15G21    30.08F
$$

MTZ011-013-016-021-045-047-050-051-212200-
NORTH CENTRAL MONTANA

CITY           SKY/WX    TMP DP  RH WIND       PRES   REMARKS
HAVRE          FAIR      29  14  53 NE5       30.15F
LEWISTOWN      FAIR      41  29  62 CALM      30.09F
N BAR RANCH    FAIR      37  28  70 SE5       30.12F
CHINOOK          N/A     27   9  46 E12G17    30.16F WCI  16
GEYSER         FAIR      39  26  60 SW5       30.07F
STANFORD       FAIR      39  30  70 CALM      30.07F
$$

MTZ017>020-022>027-061-062-212200-
NORTHEAST MONTANA

CITY           SKY/WX    TMP DP  RH WIND       PRES   REMARKS
GLASGOW        CLOUDY    15  -2  46 SE12      30.25F WCI   2
GLENDIVE       FAIR      26   6  42 VRB3      30.29F
JORDAN           N/A     32  17  54 S10       30.21F WCI  24
WOLF POINT     FAIR      19  -1  41 SW6       30.31F WCI  11
MALTA          SUNNY     23   7  50 E9        30.22F WCI  13
PLENTYWOOD       N/A     14   0  52 CALM      30.28F
POPLAR           N/A     18  -2  41 S3        30.31F
$$

MTZ028>42-056>058-212200-
SOUTHCENTRAL AND SOUTHEAST MONTANA

CITY           SKY/WX    TMP DP  RH WIND       PRES   REMARKS
BAKER          FAIR      24  10  55 W6        30.26F WCI  17
BILLINGS       FAIR      37  31  78 SW9       30.16F WCI  30
LIVINGSTON     FAIR      44  32  62 NW14      30.14F
MILES CITY     FAIR      27  14  58 SE9       30.25F WCI  18
BIG TIMBER     SUNNY     39  32  75 CALM      30.15F
EKALAKA          N/A     26  11  53 SW1       30.18F
FORSYTH          N/A     34  23  64 SE6       30.23F WCI  29
LAUREL           N/A     39  32  75 S8        30.17F
ROUNDUP          N/A     35  26  70 S17       30.06F WCI  25
$$

REGIONAL REPORTS...DAKOTAS

CITY           SKY/WX    TMP DP  RH WIND       PRES   REMARKS
WILLISTON      FAIR      16   0  49 W3        30.33F
MINOT          FAIR      18   5  57 W13       30.32F WCI   5
DICKINSON      FAIR      19  -1  41 W10       30.25F WCI   7
BEACH          FAIR      19  -2  38 W9        30.30F WCI   9
CROSBY         FAIR       9   0  66 NW9       30.34F WCI  -5
TIOGA          FAIR       9   0  66 NW10      30.30F WCI  -6
WATFORD CITY   FAIR      16   0  48 W8        30.32F WCI   5
BISMARCK       FAIR      23   8  52 N8        30.37F WCI  14
GRAND FORKS    FAIR      22  12  65 NW16      30.32R WCI   8
FARGO          FAIR      24  10  55 NW21      30.31F WCI   9
BUFFALO SD       N/A     31   7  36 W13       30.20F WCI  21
RAPID CITY     FAIR      34  21  59 N5        30.29F
$$

REGIONAL REPORTS...WYOMING/IDAHO/WASHINGTON

CITY           SKY/WX    TMP DP  RH WIND       PRES   REMARKS
GILLETTE       FAIR      42  26  53 SW6       30.21F
SHERIDAN       FAIR      41  34  76 S3        30.20F
BUFFALO WY     FAIR      43  26  51 S10       30.20F
CODY           FAIR      46  32  58 SE12      30.19F
YELLOWSTONE LA   N/A     34  30  85 VRB3      30.33F
IDAHO FALLS    CLOUDY    40  38  93 CALM      30.34F
SALMON         CLOUDY    39  37  93 CALM      30.29F
BOISE          CLOUDY    57  48  72 SE7       30.25S
SPOKANE        LGT RAIN  37  37 100 E8        30.14F VSB 1/2 WCI  31
$$

REGIONAL REPORTS...ALBERTA

CITY           SKY/WX    TMP DP  RH WIND       PRES   REMARKS
EDMONTON       CLOUDY     9   0  66 S6        30.11F WCI  -1
CALGARY        CLOUDY    14   7  73 SE9       29.99F WCI   2
LETHBRIDGE     PTSUNNY   23  18  80 N3        30.05F
MEDICINE HAT   MOSUNNY   18  10  73 NE9       30.14F WCI   6
$$

REGIONAL REPORTS...SASKATCHEWAN

CITY           SKY/WX    TMP DP  RH WIND       PRES   REMARKS
SWIFT CURRENT  CLOUDY    10   1  67 S13       30.15F WCI  -5
REGINA         MOSUNNY    3  -4  72 W6        30.32F WCI  -8
SASKATOON      PTSUNNY    3  -2  78 SW8       30.30F WCI -10
$$




USA.gov is the U.S. government's official web portal to all federal, state and local government web resources and services.